Powrót do katalogu

STARLINK-4298

AktywnyŁącznośćVLEO
NORAD 53177·PAYLOAD·🇺🇸 United States

Wystrzelony Jul 17, 2022 z Cape Canaveral Space Force Station

Loading…

Następne Przeloty (najbliższe 24 godziny)

TLE

ŚwieżeSource: CelesTrak SupGP

Epoka: Sep 14, 2026, 22:12 UTC

1 53177C 22083AX  26257.92548611 -.00035783  00000+0 -10240-2 0  2579
2 53177  53.1600 358.1496 0001135  83.3790 181.6632 15.35410809    10

Śledź STARLINK-4298 w czasie rzeczywistym z AllMySat

Download on the App Store